Lid_Strength_Index
4 4 4 5 5 5 5 5 4 4 4 4 4 4 4 4 4 4 4 4 4 4 5 5 5 5 6 9 10 7 3 4 4 3 6 7 7 7 9 7 6 7 6 5 5 5 5
5 5 5 5 5 5 5 5 5 5 4 4 4 4 4 4 4 4 4 4 4 4 4 4 4 4 9 14 6 6 5 6 8 6 6 6 6 6 7 7 7 6 6 6 5 5 5
5 5 5 5 5 5 6 5 5 5 5 4 4 4 4 4 4 4 4 4 4 4 4 4 4 6 9 11 6 5 6 7 7 8 8 6 6 7 7 8 6 6 8 7 7 6 6
5 5 5 5 5 5 5 5 5 5 4 4 4 4 4 4 4 4 4 4 4 4 4 3 4 7 11 6 4 6 6 6 6 7 8 7 6 7 8 7 9 10 10 11 8 8 8
5 5 5 5 5 6 5 5 5 4 4 4 4 4 4 4 4 4 4 4 4 4 4 4 6 8 12 6 8 5 5 7 7 7 8 8 8 8 8 10 11 11 12 12 10 8 8
5 5 5 5 5 5 5 5 5 5 5 4 4 4 4 5 5 5 4 5 5 5 5 5 6 11 10 10 7 6 5 5 7 8 10 10 9 10 10 11 15 13 13 12 11 9 9
5 5 5 5 5 5 5 5 5 5 5 5 4 4 4 5 5 5 6 8 9 10 9 11 11 11 10 7 6 8 6 7 7 9 13 11 13 13 12 11 11 10 11 11 10 9 10
5 5 5 5 5 5 5 5 5 5 5 4 4 4 4 4 5 5 7 9 9 9 13 9 9 9 8 7 11 9 7 9 10 12 11 13 14 11 10 10 11 12 12 12 10 10 10
6 5 5 5 5 5 5 4 4 5 4 4 4 4 4 3 3 5 6 6 3 4 11 9 7 8 8 7 10 9 8 9 11 12 12 13 11 10 10 11 12 12 13 12 12 10 10
6 5 5 5 5 4 5 5 5 4 4 4 3 3 2 1 3 3 5 2 2 2 11 10 8 6 6 7 10 6 7 8 10 12 12 11 10 11 11 12 11 13 10 11 12 12 14
6 5 5 5 4 4 4 4 4 4 4 3 2 1 0 0 3 5 3 1 1 3 18 9 7 2 4 7 7 7 5 7 10 11 11 13 12 12 12 13 10 11 10 11 11 12 12
6 6 5 5 5 4 4 4 4 3 2 1 0 -0 -0 1 2 2 1 1 2 12 17 10 6 8 7 6 6 5 7 6 6 8 9 10 9 10 10 10 9 8 10 10 11 11 15
6 5 6 5 4 4 4 4 3 2 0 -0 -0 -0 0 1 4 1 0 3 12 16 9 10 10 7 8 9 8 8 8 9 11 12 12 11 11 10 9 11 9 9 11 15 16 16 17
5 5 5 4 4 4 3 3 1 0 -0 -1 -1 0 1 0 -0 -1 2 8 16 12 11 7 8 8 10 8 10 10 9 12 8 9 10 13 15 11 10 10 12 10 11 15 18 17 15
6 5 4 4 4 3 3 2 0 -0 -1 -1 0 1 1 0 0 -0 6 13 13 11 9 10 9 10 10 9 11 11 11 13 9 8 13 12 13 9 9 8 8 11 12 10 13 12 13
6 5 5 4 3 3 2 0 -1 -1 -1 -0 2 3 3 1 -0 2 9 12 11 7 7 8 12 10 12 10 12 12 13 11 11 8 8 10 14 10 10 8 8 9 8 13 13 17 18
6 5 5 4 3 2 1 -0 -1 -1 -1 0 3 5 2 -1 0 6 12 11 9 6 6 9 10 11 10 11 11 12 12 11 10 9 8 9 11 11 10 11 11 11 11 11 11 12 16
5 5 5 4 3 2 1 -0 -1 -1 -0 1 4 8 2 0 8 8 11 9 7 8 6 8 8 9 10 10 11 12 12 11 9 9 12 10 11 13 12 9 8 9 10 10 14 15 12
5 5 5 4 3 2 1 -0 -1 -1 -0 2 6 7 2 2 11 10 8 8 7 8 8 9 9 8 8 10 12 10 10 8 9 10 11 10 12 14 13 11 9 10 10 9 9 10 13
5 5 4 3 3 2 1 0 -1 -1 -1 2 5 9 5 4 5 9 10 9 10 6 8 8 8 7 9 10 8 11 11 9 8 9 9 9 12 13 14 13 11 12 11 10 10 13 13
6 5 4 3 2 1 1 1 -0 -1 -0 2 6 8 7 10 8 8 8 9 10 10 7 7 9 9 11 12 11 13 11 10 9 8 9 10 14 13 13 13 12 11 11 11 12 11 13
6 5 4 3 2 1 1 1 0 -0 1 3 7 7 6 8 7 8 8 9 10 9 9 9 10 9 9 11 10 12 11 11 12 9 10 10 13 13 13 12 11 12 11 10 11 10 10
6 5 4 3 2 2 1 1 0 -0 0 5 5 4 6 8 9 10 9 10 10 8 7 7 8 9 10 8 7 7 7 7 8 10 11 11 12 13 14 13 12 13 11 10 10 10 10
6 5 4 3 2 2 2 1 -0 -0 -0 2 3 4 7 10 9 9 8 8 9 9 10 7 7 9 6 4 5 5 6 7 8 8 8 11 12 13 14 13 16 10 8 8 9 9 8
6 6 5 3 2 2 2 1 0 -0 -1 2 2 4 6 10 8 8 8 8 8 7 8 8 6 5 4 6 10 11 11 11 10 9 9 9 11 13 15 15 12 11 10 10 9 10 9
6 6 5 3 2 2 2 1 0 -0 -0 1 1 2 4 8 8 7 8 8 10 10 8 7 5 4 5 9 11 14 14 12 13 12 9 9 10 13 13 16 16 13 9 8 8 12 8
6 6 5 4 2 2 2 1 1 0 -0 1 2 2 5 8 7 7 9 9 7 8 10 8 7 8 6 11 13 13 13 10 14 16 15 13 13 15 14 15 13 9 8 7 14 12 8
6 6 5 4 3 2 2 1 1 0 -0 1 2 2 4 7 7 6 6 7 7 7 10 8 8 8 9 12 13 13 14 12 13 12 14 15 15 15 14 15 17 7 9 11 9 8 8
6 6 6 5 3 2 2 2 1 1 0 1 4 3 2 6 7 4 5 4 5 5 7 7 8 8 8 11 11 11 13 12 13 15 10 14 12 14 13 13 9 8 9 7 7 8 8